Time,TemperatureF,DewpointF,PressureIn,WindDirection,WindDirectionDegrees,WindSpeedMPH,WindSpeedGustMPH,Humidity,HourlyPrecipIn,Conditions,Clouds,dailyrainin,SoftwareType,DateUTC
2013-03-13 00:00:00,53.4,51.8,29.69,NE,45,5.4,6.9,94,0.02,,,-99.99,meteobridge,2013-03-13 04:00:00,
2013-03-13 00:01:00,53.4,51.8,29.69,NW,315,6.0,6.9,94,0.02,,,0.00,meteobridge,2013-03-13 04:01:00,
2013-03-13 00:06:00,53.6,51.6,29.69,SE,135,15.2,15.2,93,0.04,,,0.01,meteobridge,2013-03-13 04:06:00,
2013-03-13 00:11:00,53.8,51.8,29.69,East,90,10.7,12.1,93,0.04,,,0.01,meteobridge,2013-03-13 04:11:00,
2013-03-13 00:17:00,53.8,51.8,29.69,East,90,8.3,8.3,93,0.02,,,0.01,meteobridge,2013-03-13 04:17:00,
2013-03-13 00:22:00,54.0,52.3,29.69,NNE,23,6.0,6.9,94,0.02,,,0.01,meteobridge,2013-03-13 04:22:00,
2013-03-13 00:27:00,54.1,52.5,29.68,NE,45,9.8,11.4,94,0.02,,,0.01,meteobridge,2013-03-13 04:27:00,
2013-03-13 00:32:00,54.1,52.5,29.68,SW,225,6.9,6.9,94,0.02,,,0.01,meteobridge,2013-03-13 04:32:00,
2013-03-13 00:37:00,54.1,52.5,29.69,NNE,23,9.8,9.8,94,0.02,,,0.01,meteobridge,2013-03-13 04:37:00,
2013-03-13 00:42:00,54.1,52.2,29.69,NE,45,5.4,8.3,93,0.04,,,0.02,meteobridge,2013-03-13 04:42:00,
2013-03-13 00:48:00,54.1,52.2,29.69,SE,135,2.2,6.0,93,0.06,,,0.05,meteobridge,2013-03-13 04:48:00,
2013-03-13 00:53:00,52.7,51.1,29.70,NE,45,3.1,3.1,94,0.07,,,0.07,meteobridge,2013-03-13 04:53:00,
2013-03-13 00:58:00,52.0,50.0,29.69,SE,135,4.5,6.0,93,0.12,,,0.12,meteobridge,2013-03-13 04:58:00,
2013-03-13 01:03:00,51.6,50.0,29.70,SE,135,2.2,5.4,94,0.14,,,0.14,meteobridge,2013-03-13 05:03:00,
2013-03-13 01:08:00,51.3,49.6,29.69,East,90,3.8,4.5,94,0.14,,,0.15,meteobridge,2013-03-13 05:08:00,
2013-03-13 01:13:00,51.3,49.6,29.70,NE,45,7.6,7.6,94,0.17,,,0.18,meteobridge,2013-03-13 05:13:00,
2013-03-13 01:18:00,51.4,49.8,29.69,East,90,4.5,6.9,94,0.18,,,0.19,meteobridge,2013-03-13 05:18:00,
2013-03-13 01:24:00,51.6,50.0,29.69,East,90,3.1,6.0,94,0.20,,,0.21,meteobridge,2013-03-13 05:24:00,
2013-03-13 01:29:00,51.6,50.0,29.68,East,90,3.8,5.4,94,0.20,,,0.21,meteobridge,2013-03-13 05:29:00,
2013-03-13 01:34:00,51.6,50.0,29.68,NE,45,6.9,6.9,94,0.20,,,0.21,meteobridge,2013-03-13 05:34:00,
2013-03-13 01:39:00,51.8,50.2,29.68,North,0,6.0,6.9,94,0.20,,,0.22,meteobridge,2013-03-13 05:39:00,
2013-03-13 01:44:00,52.0,50.4,29.67,West,270,6.0,6.9,94,0.19,,,0.22,meteobridge,2013-03-13 05:44:00,
2013-03-13 01:49:00,52.3,50.7,29.67,NE,45,6.9,9.2,94,0.17,,,0.22,meteobridge,2013-03-13 05:49:00,
2013-03-13 01:55:00,52.5,50.9,29.67,SE,135,5.4,7.6,94,0.13,,,0.22,meteobridge,2013-03-13 05:55:00,
2013-03-13 02:00:00,53.1,51.4,29.67,NE,45,7.6,7.6,94,0.09,,,0.22,meteobridge,2013-03-13 06:00:00,
2013-03-13 02:05:00,53.1,51.4,29.67,NE,45,7.6,7.6,94,0.07,,,0.22,meteobridge,2013-03-13 06:05:00,
2013-03-13 02:10:00,53.1,51.4,29.67,NE,45,5.4,5.4,94,0.07,,,0.24,meteobridge,2013-03-13 06:10:00,
2013-03-13 02:15:00,53.1,51.4,29.67,ENE,68,6.0,7.6,94,0.05,,,0.24,meteobridge,2013-03-13 06:15:00,
2013-03-13 02:20:00,52.9,51.3,29.67,North,0,6.9,6.9,94,0.04,,,0.24,meteobridge,2013-03-13 06:20:00,
2013-03-13 02:26:00,52.7,51.1,29.67,NE,45,4.5,7.6,94,0.02,,,0.24,meteobridge,2013-03-13 06:26:00,
2013-03-13 02:31:00,52.5,50.9,29.67,NE,45,6.0,6.0,94,0.02,,,0.24,meteobridge,2013-03-13 06:31:00,
2013-03-13 02:36:00,52.2,50.5,29.67,NE,45,6.9,6.9,94,0.01,,,0.24,meteobridge,2013-03-13 06:36:00,
2013-03-13 02:41:00,52.0,50.4,29.66,East,90,4.5,5.4,94,0.02,,,0.25,meteobridge,2013-03-13 06:41:00,
2013-03-13 02:46:00,51.8,50.2,29.67,East,90,3.8,4.5,94,0.02,,,0.25,meteobridge,2013-03-13 06:46:00,
2013-03-13 02:51:00,51.6,50.2,29.66,North,0,4.5,4.5,95,0.02,,,0.25,meteobridge,2013-03-13 06:51:00,
2013-03-13 02:56:00,51.4,50.0,29.66,East,90,5.4,5.4,95,0.04,,,0.26,meteobridge,2013-03-13 06:56:00,
2013-03-13 03:01:00,51.3,49.8,29.65,East,90,5.4,6.0,95,0.04,,,0.26,meteobridge,2013-03-13 07:01:00,
2013-03-13 03:06:00,51.3,49.8,29.65,North,0,3.8,3.8,95,0.06,,,0.28,meteobridge,2013-03-13 07:06:00,
2013-03-13 03:11:00,51.1,49.6,29.65,NE,45,3.1,3.8,95,0.05,,,0.28,meteobridge,2013-03-13 07:11:00,
2013-03-13 03:17:00,51.1,49.6,29.65,NE,45,3.1,3.1,95,0.06,,,0.30,meteobridge,2013-03-13 07:17:00,
2013-03-13 03:22:00,50.9,49.5,29.65,SW,225,1.6,1.6,95,0.07,,,0.31,meteobridge,2013-03-13 07:22:00,
2013-03-13 03:27:00,50.9,49.5,29.65,SE,135,2.2,2.2,95,0.07,,,0.31,meteobridge,2013-03-13 07:27:00,
2013-03-13 03:32:00,50.5,48.9,29.64,NE,45,2.2,5.4,94,0.08,,,0.32,meteobridge,2013-03-13 07:32:00,
2013-03-13 03:37:00,50.0,48.4,29.64,East,90,2.2,3.8,94,0.07,,,0.32,meteobridge,2013-03-13 07:37:00,
2013-03-13 03:42:00,49.8,48.4,29.64,SE,135,2.2,3.8,95,0.08,,,0.33,meteobridge,2013-03-13 07:42:00,
2013-03-13 03:48:00,49.6,48.2,29.65,NE,45,6.0,6.0,95,0.08,,,0.33,meteobridge,2013-03-13 07:48:00,
2013-03-13 03:53:00,49.5,48.0,29.65,East,90,3.8,3.8,95,0.07,,,0.33,meteobridge,2013-03-13 07:53:00,
2013-03-13 03:58:00,49.3,47.8,29.65,SW,225,2.2,2.2,95,0.09,,,0.35,meteobridge,2013-03-13 07:58:00,
2013-03-13 04:03:00,49.3,47.8,29.64,East,90,0.7,0.7,95,0.09,,,0.37,meteobridge,2013-03-13 08:03:00,
2013-03-13 04:08:00,49.1,47.7,29.64,NE,45,0.7,0.7,95,0.11,,,0.39,meteobridge,2013-03-13 08:08:00,
2013-03-13 04:13:00,49.1,47.7,29.65,NE,45,0.0,0.0,95,0.11,,,0.39,meteobridge,2013-03-13 08:13:00,
2013-03-13 04:18:00,48.9,47.5,29.65,NE,45,1.6,2.2,95,0.11,,,0.40,meteobridge,2013-03-13 08:18:00,
2013-03-13 04:24:00,48.9,47.5,29.64,East,90,3.1,3.1,95,0.09,,,0.40,meteobridge,2013-03-13 08:24:00,
2013-03-13 04:29:00,48.9,47.5,29.64,NE,45,0.0,1.6,95,0.11,,,0.41,meteobridge,2013-03-13 08:29:00,
2013-03-13 04:34:00,48.7,47.3,29.65,South,180,0.7,0.7,95,0.11,,,0.43,meteobridge,2013-03-13 08:34:00,
2013-03-13 04:39:00,48.7,47.3,29.65,SW,225,0.0,0.0,95,0.09,,,0.43,meteobridge,2013-03-13 08:39:00,
2013-03-13 04:44:00,48.7,47.3,29.65,NE,45,1.6,1.6,95,0.11,,,0.44,meteobridge,2013-03-13 08:44:00,
2013-03-13 04:49:00,48.7,47.3,29.65,South,180,0.0,1.6,95,0.11,,,0.44,meteobridge,2013-03-13 08:49:00,
2013-03-13 04:55:00,48.6,47.1,29.65,SW,225,2.2,2.2,95,0.11,,,0.45,meteobridge,2013-03-13 08:55:00,
2013-03-13 05:00:00,48.4,46.9,29.66,SE,135,5.4,5.4,95,0.08,,,0.45,meteobridge,2013-03-13 09:00:00,
2013-03-13 05:05:00,47.5,46.4,29.65,SW,225,3.8,3.8,96,0.08,,,0.45,meteobridge,2013-03-13 09:05:00,
2013-03-13 05:10:00,46.6,45.1,29.66,SE,135,3.1,4.5,95,0.06,,,0.45,meteobridge,2013-03-13 09:10:00,
2013-03-13 05:15:00,46.0,44.6,29.66,South,180,3.8,5.4,95,0.05,,,0.45,meteobridge,2013-03-13 09:15:00,
2013-03-13 05:20:00,45.5,44.2,29.66,South,180,3.1,3.1,95,0.05,,,0.45,meteobridge,2013-03-13 09:20:00,
2013-03-13 05:26:00,45.3,44.1,29.66,SE,135,2.2,2.2,95,0.04,,,0.45,meteobridge,2013-03-13 09:26:00,
2013-03-13 05:31:00,45.1,43.9,29.66,SW,225,2.2,3.1,95,0.02,,,0.45,meteobridge,2013-03-13 09:31:00,
2013-03-13 05:36:00,45.0,43.7,29.65,SW,225,4.5,4.5,95,0.02,,,0.45,meteobridge,2013-03-13 09:36:00,
2013-03-13 05:41:00,44.6,43.0,29.66,SW,225,3.8,3.8,94,0.02,,,0.45,meteobridge,2013-03-13 09:41:00,
2013-03-13 05:46:00,44.2,43.0,29.66,SW,225,3.1,3.8,95,0.01,,,0.45,meteobridge,2013-03-13 09:46:00,
2013-03-13 05:51:00,44.1,42.8,29.66,SE,135,5.4,5.4,95,0.00,,,0.45,meteobridge,2013-03-13 09:51:00,
2013-03-13 05:57:00,43.5,42.3,29.67,SW,225,3.1,3.8,95,0.00,,,0.45,meteobridge,2013-03-13 09:57:00,
2013-03-13 06:02:00,43.5,42.3,29.66,South,180,3.1,3.1,95,0.00,,,0.45,meteobridge,2013-03-13 10:02:00,
2013-03-13 06:07:00,43.5,42.3,29.67,South,180,3.1,3.1,95,0.00,,,0.45,meteobridge,2013-03-13 10:07:00,
2013-03-13 06:12:00,43.0,41.7,29.67,South,180,3.1,3.8,95,0.00,,,0.45,meteobridge,2013-03-13 10:12:00,
2013-03-13 06:17:00,42.8,41.5,29.67,South,180,4.5,4.5,95,0.00,,,0.45,meteobridge,2013-03-13 10:17:00,
2013-03-13 06:22:00,42.6,41.5,29.66,South,180,2.2,3.8,96,0.00,,,0.45,meteobridge,2013-03-13 10:22:00,
2013-03-13 06:28:00,42.3,41.2,29.67,SW,225,4.5,4.5,96,0.00,,,0.45,meteobridge,2013-03-13 10:28:00,
2013-03-13 06:33:00,42.1,40.8,29.66,SW,225,2.2,4.5,95,0.00,,,0.45,meteobridge,2013-03-13 10:33:00,
2013-03-13 06:38:00,42.1,40.8,29.66,SSW,203,2.2,3.1,95,0.00,,,0.45,meteobridge,2013-03-13 10:38:00,
2013-03-13 06:43:00,42.1,40.8,29.67,SW,225,1.6,2.2,95,0.00,,,0.45,meteobridge,2013-03-13 10:43:00,
2013-03-13 06:48:00,42.1,40.8,29.67,South,180,4.5,4.5,95,0.00,,,0.45,meteobridge,2013-03-13 10:48:00,
2013-03-13 06:53:00,41.9,40.6,29.67,SE,135,3.1,3.1,95,0.00,,,0.45,meteobridge,2013-03-13 10:53:00,
2013-03-13 06:59:00,41.9,40.6,29.67,South,180,4.5,4.5,95,0.00,,,0.45,meteobridge,2013-03-13 10:59:00,
2013-03-13 07:04:00,41.7,40.5,29.68,SW,225,3.8,3.8,95,0.00,,,0.45,meteobridge,2013-03-13 11:04:00,
2013-03-13 07:09:00,41.5,39.9,29.67,SW,225,3.8,4.5,94,0.00,,,0.45,meteobridge,2013-03-13 11:09:00,
2013-03-13 07:14:00,41.5,39.7,29.67,South,180,6.0,6.0,93,0.00,,,0.45,meteobridge,2013-03-13 11:14:00,
2013-03-13 07:19:00,41.4,39.2,29.68,SE,135,4.5,4.5,92,0.00,,,0.45,meteobridge,2013-03-13 11:19:00,
2013-03-13 07:24:00,41.5,39.2,29.67,West,270,3.8,3.8,91,0.00,,,0.45,meteobridge,2013-03-13 11:24:00,
2013-03-13 07:30:00,41.4,38.7,29.68,East,90,4.5,4.5,90,0.00,,,0.45,meteobridge,2013-03-13 11:30:00,
2013-03-13 07:35:00,41.5,38.5,29.68,SW,225,4.5,5.4,89,0.00,,,0.45,meteobridge,2013-03-13 11:35:00,
2013-03-13 07:40:00,41.4,38.1,29.68,South,180,5.4,6.9,88,0.00,,,0.45,meteobridge,2013-03-13 11:40:00,
2013-03-13 07:45:00,41.4,38.1,29.68,South,180,5.4,5.4,88,0.00,,,0.45,meteobridge,2013-03-13 11:45:00,
2013-03-13 07:50:00,41.4,37.8,29.68,SW,225,3.8,5.4,87,0.00,,,0.45,meteobridge,2013-03-13 11:50:00,
2013-03-13 07:55:00,41.4,37.6,29.68,South,180,3.8,4.5,86,0.00,,,0.45,meteobridge,2013-03-13 11:55:00,
2013-03-13 08:01:00,41.4,37.6,29.68,SE,135,6.0,6.0,86,0.01,,,0.46,meteobridge,2013-03-13 12:01:00,
2013-03-13 08:06:00,41.5,37.4,29.68,West,270,2.2,3.8,85,0.01,,,0.46,meteobridge,2013-03-13 12:06:00,
2013-03-13 08:11:00,41.7,37.6,29.68,SSW,203,3.1,4.5,85,0.01,,,0.46,meteobridge,2013-03-13 12:11:00,
2013-03-13 08:16:00,41.5,37.0,29.68,SW,225,5.4,5.4,84,0.01,,,0.46,meteobridge,2013-03-13 12:16:00,
2013-03-13 08:22:00,41.7,37.6,29.68,West,270,4.5,9.2,85,0.01,,,0.46,meteobridge,2013-03-13 12:22:00,
2013-03-13 08:27:00,41.7,37.2,29.68,West,270,3.8,4.5,84,0.01,,,0.46,meteobridge,2013-03-13 12:27:00,
2013-03-13 08:32:00,41.7,37.2,29.68,East,90,1.6,4.5,84,0.01,,,0.46,meteobridge,2013-03-13 12:32:00,
2013-03-13 08:37:00,41.7,37.2,29.68,North,0,3.1,4.5,84,0.01,,,0.46,meteobridge,2013-03-13 12:37:00,
2013-03-13 08:42:00,42.1,37.6,29.67,South,180,4.5,5.4,84,0.01,,,0.46,meteobridge,2013-03-13 12:42:00,
2013-03-13 08:47:00,42.1,37.2,29.68,South,180,3.8,6.9,83,0.01,,,0.46,meteobridge,2013-03-13 12:47:00,
2013-03-13 08:52:00,42.1,37.0,29.68,SE,135,4.5,6.0,82,0.01,,,0.46,meteobridge,2013-03-13 12:52:00,
2013-03-13 08:58:00,42.1,36.3,29.68,SE,135,6.0,7.6,80,0.00,,,0.46,meteobridge,2013-03-13 12:58:00,
2013-03-13 09:03:00,42.3,36.9,29.68,North,0,4.5,5.4,81,0.00,,,0.46,meteobridge,2013-03-13 13:03:00,
2013-03-13 09:08:00,42.4,37.0,29.68,South,180,3.1,6.0,81,0.00,,,0.46,meteobridge,2013-03-13 13:08:00,
2013-03-13 09:13:00,42.6,37.6,29.68,South,180,4.5,4.5,82,0.00,,,0.46,meteobridge,2013-03-13 13:13:00,
2013-03-13 09:18:00,42.6,37.2,29.67,South,180,4.5,4.5,81,0.00,,,0.46,meteobridge,2013-03-13 13:18:00,
2013-03-13 09:23:00,42.4,37.0,29.67,SE,135,3.8,4.5,81,0.00,,,0.46,meteobridge,2013-03-13 13:23:00,
2013-03-13 09:29:00,42.8,37.0,29.67,SE,135,2.2,3.8,80,0.00,,,0.46,meteobridge,2013-03-13 13:29:00,
2013-03-13 09:34:00,44.4,39.0,29.67,SE,135,3.8,4.5,81,0.00,,,0.46,meteobridge,2013-03-13 13:34:00,
2013-03-13 09:39:00,44.2,37.2,29.67,East,90,6.0,6.9,76,0.00,,,0.46,meteobridge,2013-03-13 13:39:00,
2013-03-13 09:44:00,44.2,37.2,29.66,South,180,5.4,6.0,76,0.00,,,0.46,meteobridge,2013-03-13 13:44:00,
2013-03-13 09:49:00,44.1,36.7,29.66,South,180,6.9,6.9,75,0.00,,,0.46,meteobridge,2013-03-13 13:49:00,
2013-03-13 09:54:00,44.8,36.7,29.66,South,180,4.5,5.4,73,0.00,,,0.46,meteobridge,2013-03-13 13:54:00,
2013-03-13 09:59:00,45.3,36.5,29.66,East,90,5.4,6.9,71,0.00,,,0.46,meteobridge,2013-03-13 13:59:00,
2013-03-13 10:04:00,46.0,36.9,29.66,SE,135,4.5,6.9,70,0.00,,,0.46,meteobridge,2013-03-13 14:04:00,
2013-03-13 10:10:00,46.4,36.9,29.66,South,180,6.9,6.9,69,0.00,,,0.46,meteobridge,2013-03-13 14:10:00,
2013-03-13 10:15:00,46.4,36.0,29.66,South,180,4.5,7.6,67,0.00,,,0.46,meteobridge,2013-03-13 14:15:00,
2013-03-13 10:20:00,46.6,36.1,29.66,South,180,5.4,7.6,67,0.00,,,0.46,meteobridge,2013-03-13 14:20:00,
2013-03-13 10:25:00,46.4,35.6,29.66,SE,135,7.6,8.3,66,0.00,,,0.46,meteobridge,2013-03-13 14:25:00,
2013-03-13 10:30:00,46.4,36.0,29.66,South,180,6.9,6.9,67,0.00,,,0.46,meteobridge,2013-03-13 14:30:00,
2013-03-13 10:35:00,46.4,36.5,29.66,South,180,7.6,7.6,68,0.00,,,0.46,meteobridge,2013-03-13 14:35:00,
2013-03-13 10:41:00,46.2,36.0,29.66,South,180,6.0,6.0,67,0.00,,,0.46,meteobridge,2013-03-13 14:41:00,
2013-03-13 10:46:00,46.2,35.4,29.66,SW,225,5.4,5.4,66,0.00,,,0.46,meteobridge,2013-03-13 14:46:00,
2013-03-13 10:51:00,46.6,36.5,29.66,SE,135,4.5,5.4,68,0.00,,,0.46,meteobridge,2013-03-13 14:51:00,
2013-03-13 10:56:00,46.9,36.9,29.65,SW,225,4.5,4.5,68,0.00,,,0.46,meteobridge,2013-03-13 14:56:00,
2013-03-13 11:01:00,48.2,37.4,29.65,West,270,3.8,6.0,66,0.00,,,0.46,meteobridge,2013-03-13 15:01:00,
2013-03-13 11:07:00,49.3,37.9,29.66,SW,225,4.5,6.0,65,0.00,,,0.46,meteobridge,2013-03-13 15:07:00,
2013-03-13 11:12:00,50.0,38.3,29.66,North,0,2.2,5.4,64,0.00,,,0.46,meteobridge,2013-03-13 15:12:00,
2013-03-13 11:17:00,51.3,39.6,29.66,South,180,4.5,4.5,64,0.00,,,0.46,meteobridge,2013-03-13 15:17:00,
2013-03-13 11:22:00,51.6,39.4,29.66,NW,315,3.8,3.8,63,0.00,,,0.46,meteobridge,2013-03-13 15:22:00,
2013-03-13 11:27:00,51.4,37.2,29.66,East,90,4.5,6.9,58,0.00,,,0.46,meteobridge,2013-03-13 15:27:00,
2013-03-13 11:32:00,51.1,37.8,29.66,West,270,3.1,5.4,60,0.00,,,0.46,meteobridge,2013-03-13 15:32:00,
2013-03-13 11:38:00,51.6,37.8,29.66,South,180,4.5,5.4,59,0.00,,,0.46,meteobridge,2013-03-13 15:38:00,
2013-03-13 11:43:00,51.4,36.7,29.66,South,180,11.4,11.4,57,0.00,,,0.46,meteobridge,2013-03-13 15:43:00,
2013-03-13 11:48:00,50.2,35.6,29.66,SW,225,7.6,7.6,57,0.00,,,0.46,meteobridge,2013-03-13 15:48:00,
2013-03-13 11:53:00,49.1,36.3,29.66,South,180,5.4,6.0,61,0.00,,,0.46,meteobridge,2013-03-13 15:53:00,
2013-03-13 11:58:00,48.9,35.6,29.67,NE,45,3.8,6.9,60,0.00,,,0.46,meteobridge,2013-03-13 15:58:00,
2013-03-13 12:03:00,50.2,37.2,29.66,SE,135,4.5,4.5,61,0.00,,,0.46,meteobridge,2013-03-13 16:03:00,
2013-03-13 12:09:00,50.0,36.3,29.67,SE,135,3.1,6.0,59,0.00,,,0.46,meteobridge,2013-03-13 16:09:00,
2013-03-13 12:14:00,49.8,36.9,29.66,South,180,4.5,6.0,61,0.00,,,0.46,meteobridge,2013-03-13 16:14:00,
2013-03-13 12:19:00,50.7,38.7,29.67,South,180,3.1,3.1,63,0.00,,,0.46,meteobridge,2013-03-13 16:19:00,
2013-03-13 12:24:00,51.4,37.9,29.66,South,180,3.8,3.8,60,0.00,,,0.46,meteobridge,2013-03-13 16:24:00,
2013-03-13 12:29:00,51.1,36.3,29.66,South,180,5.4,7.6,57,0.00,,,0.46,meteobridge,2013-03-13 16:29:00,
2013-03-13 12:34:00,50.0,35.8,29.66,SW,225,6.9,6.9,58,0.00,,,0.46,meteobridge,2013-03-13 16:34:00,
2013-03-13 12:40:00,50.5,36.3,29.66,SE,135,9.2,9.2,58,0.00,,,0.46,meteobridge,2013-03-13 16:40:00,
2013-03-13 12:45:00,50.9,36.1,29.66,SSW,203,4.5,5.4,57,0.00,,,0.46,meteobridge,2013-03-13 16:45:00,
2013-03-13 12:50:00,50.5,35.4,29.66,South,180,4.5,5.4,56,0.00,,,0.46,meteobridge,2013-03-13 16:50:00,
2013-03-13 12:55:00,50.7,36.5,29.66,SE,135,3.8,4.5,58,0.00,,,0.46,meteobridge,2013-03-13 16:55:00,
2013-03-13 13:00:00,51.3,36.5,29.66,SE,135,5.4,5.4,57,0.00,,,0.46,meteobridge,2013-03-13 17:00:00,
2013-03-13 13:05:00,52.0,36.3,29.66,SW,225,5.4,5.4,55,0.00,,,0.46,meteobridge,2013-03-13 17:05:00,
2013-03-13 13:11:00,52.3,36.7,29.65,West,270,3.1,6.0,55,0.00,,,0.46,meteobridge,2013-03-13 17:11:00,
2013-03-13 13:16:00,54.0,36.7,29.65,SE,135,5.4,5.4,52,0.00,,,0.46,meteobridge,2013-03-13 17:16:00,
2013-03-13 13:21:00,54.0,35.2,29.66,SE,135,6.0,6.9,49,0.00,,,0.46,meteobridge,2013-03-13 17:21:00,
2013-03-13 13:26:00,52.5,34.3,29.65,South,180,3.8,6.0,50,0.00,,,0.46,meteobridge,2013-03-13 17:26:00,
2013-03-13 13:31:00,53.2,36.1,29.65,South,180,6.0,6.0,52,0.00,,,0.46,meteobridge,2013-03-13 17:31:00,
2013-03-13 13:36:00,53.8,35.6,29.65,South,180,5.4,6.0,50,0.00,,,0.46,meteobridge,2013-03-13 17:36:00,
2013-03-13 13:42:00,54.0,35.8,29.65,South,180,5.4,5.4,50,0.00,,,0.46,meteobridge,2013-03-13 17:42:00,
2013-03-13 13:47:00,54.7,36.9,29.65,South,180,3.1,5.4,51,0.00,,,0.46,meteobridge,2013-03-13 17:47:00,
2013-03-13 13:52:00,55.9,37.0,29.65,SW,225,3.8,3.8,49,0.00,,,0.46,meteobridge,2013-03-13 17:52:00,
2013-03-13 13:57:00,55.9,36.0,29.65,SE,135,3.1,3.1,47,0.00,,,0.46,meteobridge,2013-03-13 17:57:00,
2013-03-13 14:02:00,57.0,37.0,29.65,South,180,4.5,4.5,47,0.00,,,0.46,meteobridge,2013-03-13 18:02:00,
2013-03-13 14:07:00,55.4,34.3,29.65,South,180,3.8,5.4,45,0.00,,,0.46,meteobridge,2013-03-13 18:07:00,
2013-03-13 14:13:00,54.1,33.3,29.65,WSW,248,4.5,4.5,45,0.00,,,0.46,meteobridge,2013-03-13 18:13:00,
2013-03-13 14:18:00,53.6,34.3,29.65,South,180,3.8,3.8,48,0.00,,,0.46,meteobridge,2013-03-13 18:18:00,
2013-03-13 14:23:00,52.9,34.7,29.65,North,0,3.1,3.1,50,0.00,,,0.46,meteobridge,2013-03-13 18:23:00,
2013-03-13 14:28:00,52.9,34.7,29.65,North,0,3.1,3.1,50,0.00,,,0.46,meteobridge,2013-03-13 18:28:00,
2013-03-13 14:33:00,52.9,34.7,29.64,North,0,3.1,-999.0,50,0.00,,,0.46,meteobridge,2013-03-13 18:33:00,
2013-03-13 14:38:00,52.9,34.7,29.64,North,0,3.1,-999.0,50,0.00,,,0.46,meteobridge,2013-03-13 18:38:00,
2013-03-13 14:43:00,-999.0,-99.9,29.64,North,-999,-999.0,-999.0,-999,0.00,,,0.46,meteobridge,2013-03-13 18:43:00,
2013-03-13 14:49:00,52.0,34.0,29.64,East,90,4.5,4.5,50,0.00,,,0.46,meteobridge,2013-03-13 18:49:00,
2013-03-13 14:54:00,52.0,34.0,29.64,SW,225,3.1,3.1,50,0.00,,,0.46,meteobridge,2013-03-13 18:54:00,
2013-03-13 14:59:00,52.2,34.5,29.63,South,180,3.8,3.8,51,0.00,,,0.46,meteobridge,2013-03-13 18:59:00,
2013-03-13 15:04:00,53.6,33.3,29.64,SW,225,3.8,3.8,46,0.00,,,0.46,meteobridge,2013-03-13 19:04:00,
2013-03-13 15:09:00,53.6,33.8,29.64,South,180,4.5,4.5,47,0.00,,,0.46,meteobridge,2013-03-13 19:09:00,
2013-03-13 15:14:00,53.6,33.8,29.63,South,180,4.5,4.5,47,0.00,,,0.46,meteobridge,2013-03-13 19:14:00,
2013-03-13 15:20:00,53.6,33.8,29.63,South,180,4.5,-999.0,47,0.00,,,0.46,meteobridge,2013-03-13 19:20:00,
2013-03-13 15:25:00,56.3,34.7,29.63,South,180,3.8,3.8,44,0.00,,,0.46,meteobridge,2013-03-13 19:25:00,
2013-03-13 15:30:00,56.3,34.7,29.63,South,180,3.8,3.8,44,0.00,,,0.46,meteobridge,2013-03-13 19:30:00,
2013-03-13 15:35:00,56.3,34.7,29.63,South,180,3.8,-999.0,44,0.00,,,0.46,meteobridge,2013-03-13 19:35:00,
2013-03-13 15:40:00,56.3,34.7,29.63,South,180,3.8,-999.0,44,0.00,,,0.46,meteobridge,2013-03-13 19:40:00,
2013-03-13 15:45:00,56.8,32.7,29.63,South,180,3.8,3.8,40,0.00,,,0.46,meteobridge,2013-03-13 19:45:00,
2013-03-13 15:51:00,57.0,32.9,29.63,SW,225,4.5,4.5,40,0.00,,,0.46,meteobridge,2013-03-13 19:51:00,
2013-03-13 15:56:00,57.0,33.6,29.62,SW,225,4.5,4.5,41,0.00,,,0.46,meteobridge,2013-03-13 19:56:00,
2013-03-13 16:01:00,56.8,33.4,29.63,South,180,3.1,5.4,41,0.00,,,0.46,meteobridge,2013-03-13 20:01:00,
2013-03-13 16:06:00,56.8,33.4,29.62,South,180,3.1,3.1,41,0.00,,,0.46,meteobridge,2013-03-13 20:06:00,
2013-03-13 16:11:00,56.5,32.4,29.62,SE,135,2.2,2.2,40,0.00,,,0.46,meteobridge,2013-03-13 20:11:00,
2013-03-13 16:16:00,57.2,32.5,29.62,South,180,3.1,3.1,39,0.00,,,0.46,meteobridge,2013-03-13 20:16:00,
2013-03-13 16:21:00,57.6,32.2,29.62,SE,135,3.1,3.1,38,0.00,,,0.46,meteobridge,2013-03-13 20:21:00,
2013-03-13 16:26:00,57.9,32.5,29.62,SW,225,3.1,3.1,38,0.00,,,0.46,meteobridge,2013-03-13 20:26:00,
2013-03-13 16:31:00,57.9,31.8,29.62,SE,135,2.2,2.2,37,0.00,,,0.46,meteobridge,2013-03-13 20:31:00,
2013-03-13 16:37:00,57.7,32.9,29.62,SW,225,3.1,3.1,39,0.00,,,0.46,meteobridge,2013-03-13 20:37:00,
2013-03-13 16:42:00,57.6,31.5,29.62,North,0,1.6,2.2,37,0.00,,,0.46,meteobridge,2013-03-13 20:42:00,
2013-03-13 16:47:00,57.2,31.1,29.62,South,180,2.2,2.2,37,0.00,,,0.46,meteobridge,2013-03-13 20:47:00,
2013-03-13 16:52:00,57.2,31.1,29.62,South,180,2.2,2.2,37,0.00,,,0.46,meteobridge,2013-03-13 20:52:00,
2013-03-13 16:57:00,53.8,30.6,29.62,East,90,3.8,3.8,41,0.00,,,0.46,meteobridge,2013-03-13 20:57:00,
2013-03-13 17:02:00,53.4,30.9,29.62,South,180,3.1,3.1,42,0.00,,,0.46,meteobridge,2013-03-13 21:02:00,
2013-03-13 17:08:00,53.4,30.9,29.62,South,180,3.1,3.1,42,0.00,,,0.46,meteobridge,2013-03-13 21:08:00,
2013-03-13 17:13:00,50.9,31.5,29.62,North,0,1.6,1.6,47,0.00,,,0.46,meteobridge,2013-03-13 21:13:00,
2013-03-13 17:18:00,50.9,31.5,29.62,North,0,1.6,1.6,47,0.00,,,0.46,meteobridge,2013-03-13 21:18:00,
2013-03-13 17:23:00,50.2,32.2,29.63,SE,135,2.2,2.2,50,0.00,,,0.46,meteobridge,2013-03-13 21:23:00,
2013-03-13 17:28:00,50.0,32.2,29.62,SE,135,1.6,1.6,50,0.00,,,0.46,meteobridge,2013-03-13 21:28:00,
2013-03-13 17:33:00,49.5,31.6,29.63,South,180,2.2,2.2,50,0.00,,,0.46,meteobridge,2013-03-13 21:33:00,
2013-03-13 17:39:00,49.3,31.5,29.63,South,180,1.6,1.6,50,0.00,,,0.46,meteobridge,2013-03-13 21:39:00,
2013-03-13 17:44:00,48.9,31.1,29.63,South,180,2.2,2.2,50,0.00,,,0.46,meteobridge,2013-03-13 21:44:00,
2013-03-13 17:49:00,48.7,31.5,29.63,South,180,0.7,3.8,51,0.00,,,0.46,meteobridge,2013-03-13 21:49:00,
2013-03-13 17:54:00,48.6,31.3,29.63,SE,135,1.6,1.6,51,0.00,,,0.46,meteobridge,2013-03-13 21:54:00,
2013-03-13 17:59:00,48.6,31.3,29.64,SE,135,3.1,3.1,51,0.00,,,0.46,meteobridge,2013-03-13 21:59:00,
2013-03-13 18:04:00,48.2,30.9,29.64,South,180,2.2,2.2,51,0.00,,,0.46,meteobridge,2013-03-13 22:04:00,
2013-03-13 18:10:00,47.7,30.9,29.64,South,180,2.2,2.2,52,0.00,,,0.46,meteobridge,2013-03-13 22:10:00,
2013-03-13 18:15:00,47.5,31.3,29.65,South,180,1.6,1.6,53,0.00,,,0.46,meteobridge,2013-03-13 22:15:00,
2013-03-13 18:20:00,47.1,30.9,29.65,SE,135,1.6,1.6,53,0.00,,,0.46,meteobridge,2013-03-13 22:20:00,
2013-03-13 18:25:00,46.8,30.9,29.65,SE,135,0.7,1.6,54,0.00,,,0.46,meteobridge,2013-03-13 22:25:00,
2013-03-13 18:30:00,46.2,30.0,29.64,SE,135,0.7,0.7,53,0.00,,,0.46,meteobridge,2013-03-13 22:30:00,
2013-03-13 18:35:00,46.0,29.8,29.65,NE,45,0.7,0.7,53,0.00,,,0.46,meteobridge,2013-03-13 22:35:00,
2013-03-13 18:41:00,45.3,29.7,29.65,South,180,1.6,1.6,54,0.00,,,0.46,meteobridge,2013-03-13 22:41:00,
2013-03-13 18:46:00,45.0,29.8,29.65,SW,225,0.7,1.6,55,0.00,,,0.46,meteobridge,2013-03-13 22:46:00,
2013-03-13 18:51:00,44.4,30.2,29.65,SE,135,0.7,1.6,57,0.00,,,0.46,meteobridge,2013-03-13 22:51:00,
2013-03-13 18:56:00,44.1,30.2,29.65,NW,315,0.7,0.7,58,0.00,,,0.46,meteobridge,2013-03-13 22:56:00,
2013-03-13 19:01:00,43.7,30.4,29.65,SE,135,0.7,1.6,59,0.00,,,0.46,meteobridge,2013-03-13 23:01:00,
2013-03-13 19:07:00,43.5,30.6,29.65,SE,135,0.7,0.7,60,0.00,,,0.46,meteobridge,2013-03-13 23:07:00,
2013-03-13 19:12:00,43.0,30.0,29.66,NE,45,0.7,0.7,60,0.00,,,0.46,meteobridge,2013-03-13 23:12:00,
2013-03-13 19:17:00,42.8,30.7,29.66,East,90,0.0,0.0,62,0.00,,,0.46,meteobridge,2013-03-13 23:17:00,
2013-03-13 19:22:00,42.4,30.7,29.66,South,180,2.2,2.2,63,0.00,,,0.46,meteobridge,2013-03-13 23:22:00,
2013-03-13 19:27:00,42.4,30.7,29.66,South,180,1.6,1.6,63,0.00,,,0.46,meteobridge,2013-03-13 23:27:00,
2013-03-13 19:32:00,42.4,31.1,29.66,South,180,0.7,1.6,64,0.00,,,0.46,meteobridge,2013-03-13 23:32:00,
2013-03-13 19:38:00,42.4,31.1,29.67,South,180,0.7,0.7,64,0.00,,,0.46,meteobridge,2013-03-13 23:38:00,
2013-03-13 19:43:00,42.3,30.9,29.67,SE,135,0.7,0.7,64,0.00,,,0.46,meteobridge,2013-03-13 23:43:00,
2013-03-13 19:48:00,42.1,31.1,29.67,East,90,0.0,0.0,65,0.00,,,0.46,meteobridge,2013-03-13 23:48:00,
2013-03-13 19:53:00,42.1,31.5,29.67,SE,135,0.7,0.7,66,0.00,,,0.46,meteobridge,2013-03-13 23:53:00,
2013-03-13 19:58:00,41.7,31.3,29.67,East,90,0.0,0.0,66,0.00,,,0.46,meteobridge,2013-03-13 23:58:00,
2013-03-13 20:03:00,41.4,31.3,29.67,NE,45,1.6,1.6,67,0.00,,,0.46,meteobridge,2013-03-14 00:03:00,
2013-03-13 20:09:00,40.8,31.5,29.68,East,90,1.6,1.6,69,0.04,,,0.50,meteobridge,2013-03-14 00:09:00,
2013-03-13 20:14:00,41.0,31.3,29.68,East,90,2.2,2.2,68,0.04,,,0.50,meteobridge,2013-03-14 00:14:00,
2013-03-13 20:19:00,41.2,32.2,29.68,North,0,0.7,0.7,70,0.04,,,0.50,meteobridge,2013-03-14 00:19:00,
2013-03-13 20:24:00,41.4,32.7,29.68,NE,45,1.6,2.2,71,0.04,,,0.50,meteobridge,2013-03-14 00:24:00,
2013-03-13 20:29:00,41.5,33.3,29.69,South,180,1.6,2.2,72,0.04,,,0.50,meteobridge,2013-03-14 00:29:00,
2013-03-13 20:34:00,41.9,33.6,29.69,SW,225,2.2,2.2,72,0.04,,,0.50,meteobridge,2013-03-14 00:34:00,
2013-03-13 20:40:00,41.9,33.3,29.69,SE,135,1.6,1.6,71,0.04,,,0.50,meteobridge,2013-03-14 00:40:00,
2013-03-13 20:45:00,42.4,32.2,29.69,NE,45,6.0,6.0,67,0.04,,,0.50,meteobridge,2013-03-14 00:45:00,
2013-03-13 20:50:00,43.0,31.3,29.69,South,180,3.1,4.5,63,0.04,,,0.50,meteobridge,2013-03-14 00:50:00,
2013-03-13 20:55:00,43.2,30.2,29.69,South,180,6.9,6.9,60,0.04,,,0.50,meteobridge,2013-03-14 00:55:00,
2013-03-13 21:00:00,43.5,29.7,29.69,SW,225,3.8,4.5,58,0.04,,,0.50,meteobridge,2013-03-14 01:00:00,
2013-03-13 21:05:00,43.3,30.4,29.69,South,180,2.2,2.2,60,0.00,,,0.50,meteobridge,2013-03-14 01:05:00,
2013-03-13 21:10:00,43.2,29.8,29.69,South,180,5.4,5.4,59,0.00,,,0.50,meteobridge,2013-03-14 01:10:00,
2013-03-13 21:16:00,43.2,29.3,29.69,East,90,4.5,8.3,58,0.00,,,0.50,meteobridge,2013-03-14 01:16:00,
2013-03-13 21:21:00,43.2,29.3,29.69,SSE,158,6.9,6.9,58,0.00,,,0.50,meteobridge,2013-03-14 01:21:00,
2013-03-13 21:26:00,43.0,29.3,29.69,South,180,7.6,7.6,58,0.00,,,0.50,meteobridge,2013-03-14 01:26:00,
2013-03-13 21:31:00,43.0,29.3,29.70,South,180,6.0,6.0,58,0.00,,,0.50,meteobridge,2013-03-14 01:31:00,
2013-03-13 21:36:00,43.0,29.3,29.69,South,180,6.0,6.0,58,0.00,,,0.50,meteobridge,2013-03-14 01:36:00,
2013-03-13 21:41:00,43.0,29.3,29.69,SW,225,6.0,6.0,58,0.00,,,0.50,meteobridge,2013-03-14 01:41:00,
2013-03-13 21:46:00,42.8,29.1,29.69,East,90,6.0,6.0,58,0.00,,,0.50,meteobridge,2013-03-14 01:46:00,
2013-03-13 21:52:00,42.6,28.9,29.69,SE,135,3.8,9.2,58,0.00,,,0.50,meteobridge,2013-03-14 01:52:00,
2013-03-13 21:57:00,42.6,29.3,29.69,SW,225,1.6,2.2,59,0.00,,,0.50,meteobridge,2013-03-14 01:57:00,
2013-03-13 22:02:00,42.4,29.1,29.69,West,270,3.8,3.8,59,0.00,,,0.50,meteobridge,2013-03-14 02:02:00,
2013-03-13 22:07:00,42.4,29.1,29.69,West,270,3.8,3.8,59,0.00,,,0.50,meteobridge,2013-03-14 02:07:00,
2013-03-13 22:12:00,42.3,28.6,29.69,SE,135,6.9,6.9,58,0.00,,,0.50,meteobridge,2013-03-14 02:12:00,
2013-03-13 22:17:00,42.3,27.7,29.69,SW,225,8.3,8.3,56,0.00,,,0.50,meteobridge,2013-03-14 02:17:00,
2013-03-13 22:23:00,42.4,27.0,29.69,South,180,6.0,9.2,54,0.00,,,0.50,meteobridge,2013-03-14 02:23:00,
2013-03-13 22:28:00,42.4,27.0,29.68,NW,315,6.9,9.2,54,0.00,,,0.50,meteobridge,2013-03-14 02:28:00,
2013-03-13 22:33:00,42.4,26.6,29.69,South,180,5.4,6.0,53,0.00,,,0.50,meteobridge,2013-03-14 02:33:00,
2013-03-13 22:38:00,42.4,25.5,29.69,South,180,6.0,10.7,51,0.00,,,0.50,meteobridge,2013-03-14 02:38:00,
2013-03-13 22:43:00,42.6,25.3,29.70,SW,225,8.3,8.3,50,0.00,,,0.50,meteobridge,2013-03-14 02:43:00,
2013-03-13 22:48:00,42.4,25.2,29.69,NE,45,4.5,7.6,50,0.00,,,0.50,meteobridge,2013-03-14 02:48:00,
2013-03-13 22:54:00,42.4,25.2,29.69,SE,135,6.9,6.9,50,0.00,,,0.50,meteobridge,2013-03-14 02:54:00,
2013-03-13 22:59:00,42.3,25.0,29.69,SE,135,3.8,6.9,50,0.00,,,0.50,meteobridge,2013-03-14 02:59:00,
2013-03-13 23:04:00,42.3,25.0,29.69,SW,225,6.9,6.9,50,0.00,,,0.50,meteobridge,2013-03-14 03:04:00,
2013-03-13 23:09:00,42.1,25.7,29.69,SSW,203,5.4,5.4,52,0.00,,,0.50,meteobridge,2013-03-14 03:09:00,
2013-03-13 23:14:00,42.1,26.2,29.69,South,180,5.4,6.0,53,0.00,,,0.50,meteobridge,2013-03-14 03:14:00,
2013-03-13 23:19:00,41.9,26.1,29.69,SW,225,3.8,6.0,53,0.00,,,0.50,meteobridge,2013-03-14 03:19:00,
2013-03-13 23:24:00,41.7,26.2,29.69,SSE,158,5.4,5.4,54,0.00,,,0.50,meteobridge,2013-03-14 03:24:00,
2013-03-13 23:30:00,41.7,26.2,29.69,SSE,158,6.0,6.0,54,0.00,,,0.50,meteobridge,2013-03-14 03:30:00,
2013-03-13 23:35:00,41.5,26.1,29.69,SE,135,3.8,6.9,54,0.00,,,0.50,meteobridge,2013-03-14 03:35:00,
2013-03-13 23:40:00,41.5,26.6,29.69,NE,45,4.5,4.5,55,0.00,,,0.50,meteobridge,2013-03-14 03:40:00,
2013-03-13 23:45:00,41.4,26.4,29.69,SW,225,5.4,5.4,55,0.00,,,0.50,meteobridge,2013-03-14 03:45:00,
2013-03-13 23:50:00,41.4,26.4,29.69,West,270,3.8,4.5,55,0.00,,,0.50,meteobridge,2013-03-14 03:50:00,
2013-03-13 23:55:00,41.2,25.9,29.69,South,180,4.5,4.5,54,0.00,,,0.50,meteobridge,2013-03-14 03:55:00,